{"data":{"norad_id":53257,"epoch":"2026-09-20T01:58:38.930592Z","epoch_age_seconds":111493,"freshness":"FRESH","line1":"1 53257U 22086R   26263.08239503  .00003890  00000+0  13695-3 0  9995","line2":"2 53257  53.1613  35.7710 0001534  73.3616 286.7553 15.31727270230483","mean_motion":15.3172727,"eccentricity":0.0001534,"inclination_deg":53.1613,"raan_deg":35.771,"arg_perigee_deg":73.3616,"mean_anomaly_deg":286.7553,"bstar":0.00013695,"rev_number":23048,"period_min":94.011514203831,"perigee_km":469.60810071941,"apogee_km":471.709311242,"semimajor_km":6848.7957059807,"source":"CELESTRAK","updated_at":"2026-09-20T09:00:40.215413Z"}}